Location: Ferchesar
(52.6477°N, 12.4298°E)
Time: 07:58:31
(UTC+01:00)

A-11 Canister half - Pass Details

Date: 05 December 2021
Orbit: 1516 x 1684 km, 47.2° (Epoch: 22 January)

Event Time Altitude Azimuth Distance (km) Brightness Sun altitude
Rises 05:50:15 0° 200° (SSW) 4,735 11.5 -19.2°
Reaches altitude 10° 05:53:52 10° 189° (S) 3,780 11.1 -18.7°
Maximum altitude 06:01:28 27° 137° (SE) 2,717 10.9 -17.5°
Drops below altitude 10° 06:09:15 10° 84° (E) 3,897 12.2 -16.4°
Sets 06:13:02 0° 74° (ENE) 4,907 12.7 -15.9°
